Location: Kitchener
(43.4500°N, 80.5000°W)
Time: 23:10:19
(UTC-04:00)

Amateur Radio Satellites - All Passes

Search period start: 23 September 2017 22:40
Search period end: 24 September 2017 22:40
Location: Kitchener, 43.4500°N, 80.5000°W

Satellite Date Start Highest point End Downlink Frequencies (MHz)
Time Altitude Azimuth
EO-88 23 Sep 22:45:15 22:48:52 58° 260° (W) 22:52:30 145.990 - 145.960
Tancredo 1 23 Sep 22:47:13 22:48:56 15° 353° (N) 22:50:39 437.200
ESTCUBE 1 23 Sep 22:47:21 22:50:13 17° 63° (ENE) 22:53:06 437.505/2401.250
BEESAT 2 23 Sep 22:57:00 22:59:35 16° 321° (NW) 23:02:11 435.950
SO-50 23 Sep 22:59:11 23:03:38 48° 50° (NE) 23:08:06 436.795
FO-29 23 Sep 23:01:06 23:06:32 68° 287° (WNW) 23:12:32 435.910
PRISM 23 Sep 23:04:52 23:08:19 26° 96° (E) 23:11:44 437.425
PCSat 23 Sep 23:10:31 23:14:54 24° 44° (NE) 23:19:16 145.827
ISS 23 Sep 23:14:05 23:17:01 29° 341° (NNW) 23:19:58 437.550
AO-85 23 Sep 23:19:09 23:20:27 11° 326° (NW) 23:21:46 145.980
Max Valier Satellite 23 Sep 23:19:46 23:22:19 18° 267° (W) 23:24:53 145.860
YUBILEINY 23 Sep 23:25:25 23:33:39 44° 72° (ENE) 23:41:53 435.215
LO-87 23 Sep 23:41:08 23:44:39 82° 78° (ENE) 23:48:12 145.935 - 145.965
UNISAT 6 23 Sep 23:44:41 23:49:16 58° 287° (WNW) 23:53:53 437.425
nSIGHT-1 23 Sep 23:53:59 23:56:31 21° 350° (N) 23:59:06 .
TIGRISAT 24 Sep 00:08:34 00:12:51 37° 291° (WNW) 00:17:09 435.000
DUCHIFAT 1 24 Sep 00:19:01 00:20:51 12° 90° (E) 00:22:41 145.980
ESTCUBE 1 24 Sep 00:22:08 00:26:35 55° 260° (W) 00:31:04 437.505/2401.250
Tancredo 1 24 Sep 00:22:10 00:24:10 18° 13° (NNE) 00:26:08 437.200
POLYITAN 1 24 Sep 00:31:47 00:35:10 22° 94° (E) 00:38:33 437.675
EO-79 24 Sep 00:35:55 00:39:26 24° 95° (E) 00:42:57 145.935-145.965
PRISM 24 Sep 00:40:07 00:43:31 26° 292° (WNW) 00:46:54 437.425
SO-50 24 Sep 00:40:17 00:43:47 22° 248° (WSW) 00:47:18 436.795
SPROUT 24 Sep 00:47:54 00:52:07 71° 74° (ENE) 00:56:21 437.525
QB50P2 24 Sep 00:49:15 00:53:16 37° 98° (E) 00:57:14 145.880/145.840
VELOX 1 24 Sep 00:50:13 00:54:31 56° 73° (ENE) 00:58:50 145.980
FO-29 24 Sep 00:50:15 00:50:47 10° 304° (NW) 00:51:21 435.910
ISS 24 Sep 00:51:46 00:54:13 19° 1° (N) 00:56:41 437.550
PCSat 24 Sep 00:53:21 00:58:43 63° 244° (WSW) 01:04:03 145.827
AIST 2D 24 Sep 00:57:18 01:00:47 61° 285° (WNW) 01:04:13 435.315
50 SAT 24 Sep 01:04:04 01:06:39 21° 68° (ENE) 01:09:12 437.505
YUBILEINY 24 Sep 01:22:22 01:30:26 44° 273° (W) 01:38:30 435.215
NANOSAT C BR1 24 Sep 01:24:18 01:28:35 75° 102° (ESE) 01:32:49 145.865
nSIGHT-1 24 Sep 01:31:03 01:33:39 21° 11° (N) 01:36:14 .
UKube-1 24 Sep 01:51:00 01:55:04 44° 71° (ENE) 01:59:10 .
DUCHIFAT 1 24 Sep 01:52:41 01:56:54 61° 287° (WNW) 02:01:05 145.980
Tancredo 1 24 Sep 01:56:18 01:58:59 78° 32° (NNE) 02:01:40 437.200
Gurwin Techsat 1B 24 Sep 01:57:59 02:00:49 14° 89° (E) 02:03:38 435.225
DX 1 24 Sep 01:58:12 02:02:32 82° 76° (ENE) 02:06:53 434.975-435.025
POLYITAN 1 24 Sep 02:07:07 02:11:01 34° 290° (WNW) 02:14:53 437.675
Oscar 19 24 Sep 02:09:48 02:14:09 27° 95° (E) 02:18:29 437.125/150
EO-79 24 Sep 02:11:25 02:15:11 31° 291° (WNW) 02:18:57 145.935-145.965
ITUPSAT 1 24 Sep 02:14:36 02:16:21 12° 58° (ENE) 02:18:07 437.325
M-CUBED/EXP-1 PRIME 24 Sep 02:15:38 02:18:56 62° 107° (ESE) 02:22:09 437.505
QB50P2 24 Sep 02:25:35 02:28:48 21° 294° (WNW) 02:32:01 145.880/145.840
BUGSAT 1 24 Sep 02:26:49 02:31:03 86° 104° (ESE) 02:35:16 437.445
SPROUT 24 Sep 02:27:42 02:28:29 10° 271° (W) 02:29:16 437.525
ISS 24 Sep 02:28:20 02:31:23 33° 22° (NNE) 02:34:25 437.550
VELOX 1 24 Sep 02:28:58 02:31:19 14° 269° (W) 02:33:40 145.980
50 SAT 24 Sep 02:36:29 02:39:03 21° 265° (W) 02:41:37 437.505
O/OREOS (USA 219) 24 Sep 02:46:18 02:50:34 44° 107° (ESE) 02:54:53 437.305
BEESAT 24 Sep 02:48:36 02:52:26 25° 65° (ENE) 02:56:18 436.000
NANOSAT C BR1 24 Sep 03:02:10 03:03:40 12° 299° (WNW) 03:05:10 145.865
nSIGHT-1 24 Sep 03:07:11 03:10:26 65° 31° (NNE) 03:13:40 .
MOZHAYETS 4 24 Sep 03:16:36 03:20:56 42° 70° (ENE) 03:25:19
UKube-1 24 Sep 03:28:25 03:31:18 17° 267° (W) 03:34:11 .
Tancredo 1 24 Sep 03:32:47 03:33:04 10° 228° (SW) 03:33:21 437.200
Gurwin Techsat 1B 24 Sep 03:36:00 03:41:20 76° 286° (WNW) 03:46:38 435.225
CUBESAT XI-V 24 Sep 03:45:01 03:48:21 20° 64° (ENE) 03:51:41 437.345
ITUPSAT 1 24 Sep 03:48:39 03:53:26 90° 321° (NW) 03:58:15 437.325
Oscar 19 24 Sep 03:48:47 03:53:35 39° 292° (WNW) 03:58:19 437.125/150
BEESAT 3 24 Sep 03:48:55 03:51:49 19° 42° (NE) 03:54:40 437.485
BEESAT 2 24 Sep 03:58:33 03:59:19 10° 33° (NNE) 04:00:06 435.950
RS-15 24 Sep 04:02:04 04:09:19 18° 96° (E) 04:16:34 29.354- 29.394
ISS 24 Sep 04:04:47 04:07:56 42° 219° (SW) 04:11:03 437.550
BUGSAT 1 24 Sep 04:05:27 04:05:43 10° 300° (WNW) 04:06:01 437.445
AO-85 24 Sep 04:25:05 04:28:15 19° 41° (NE) 04:31:35 145.980
BEESAT 24 Sep 04:25:34 04:30:00 38° 262° (W) 04:34:28 436.000
O/OREOS (USA 219) 24 Sep 04:26:43 04:30:11 21° 306° (NW) 04:33:42 437.305
AO-7 24 Sep 04:43:07 04:51:16 56° 103° (ESE) 04:59:21 .
nSIGHT-1 24 Sep 04:44:15 04:46:27 17° 226° (SW) 04:48:38 .
ITAMSAT 1 24 Sep 04:54:01 04:59:11 60° 102° (ESE) 05:04:19 435.822/435.867
MOZHAYETS 4 24 Sep 04:54:47 04:58:15 21° 267° (W) 05:01:45
KKS-1 24 Sep 05:10:33 05:14:48 49° 72° (ENE) 05:19:05 437.445
Gurwin Techsat 1B 24 Sep 05:18:41 05:20:22 11° 305° (NW) 05:22:03 435.225
CUBESAT XI-V 24 Sep 05:20:48 05:25:21 49° 261° (W) 05:29:56 437.345
BEESAT 3 24 Sep 05:25:47 05:29:41 53° 240° (WSW) 05:33:28 437.485
BEESAT 2 24 Sep 05:33:54 05:37:56 59° 53° (NE) 05:41:53 435.950
STARS 24 Sep 05:33:58 05:37:56 36° 69° (ENE) 05:41:56 437.465
AO-85 24 Sep 06:04:36 06:09:01 67° 239° (WSW) 06:13:47 145.980
RS-15 24 Sep 06:07:23 06:19:33 73° 118° (ESE) 06:31:48 29.354- 29.394
LilacSat-2 24 Sep 06:30:38 06:32:57 15° 92° (E) 06:35:15 437.200
DOVE 4 24 Sep 06:32:39 06:36:51 60° 101° (E) 06:41:14 437.250
ITAMSAT 1 24 Sep 06:34:31 06:38:10 20° 299° (WNW) 06:41:49 435.822/435.867
AO-7 24 Sep 06:36:21 06:43:42 37° 302° (WNW) 06:51:03 .
CUTE-I 24 Sep 06:46:01 06:50:05 22° 93° (E) 06:54:08 437.470
KAITUO 1B 24 Sep 06:47:00 06:49:22 16° 92° (E) 06:51:44 145.475/437.950
KKS-1 24 Sep 06:48:51 06:51:38 16° 268° (W) 06:54:25 437.445
STRAND 1 24 Sep 07:02:06 07:06:26 29° 65° (ENE) 07:10:45 437.568
STARS 24 Sep 07:11:00 07:14:21 22° 266° (W) 07:17:45 437.465
BEESAT 2 24 Sep 07:13:07 07:15:10 14° 251° (WSW) 07:17:13 435.950
XW-2D 24 Sep 07:16:55 07:20:40 52° 100° (E) 07:24:21 145.860 - 145.880
HO-68 24 Sep 07:25:53 07:31:15 22° 91° (E) 07:36:35 435.675
XW-2F 24 Sep 07:28:49 07:32:37 67° 100° (E) 07:36:21 145.980 - 146.000
XW-2B 24 Sep 07:29:15 07:33:04 72° 102° (ESE) 07:36:50 145.730 - 145.750
CUBEBUG 2 24 Sep 07:37:42 07:39:22 12° 88° (E) 07:41:01 437.445
NUDT-PHONESAT 24 Sep 07:50:23 07:54:08 86° 286° (WNW) 07:57:51 437.300
XW-2C 24 Sep 07:50:41 07:54:28 60° 285° (WNW) 07:58:11 145.795 - 145.815
LilacSat-2 24 Sep 08:03:48 08:07:24 39° 288° (WNW) 08:10:57 437.200
SEEDS 24 Sep 08:08:15 08:11:39 23° 94° (E) 08:15:00 437.485
DOVE 4 24 Sep 08:11:58 08:14:07 14° 297° (WNW) 08:16:18 437.250
KAITUO 1B 24 Sep 08:20:03 08:23:29 35° 289° (WNW) 08:26:54 145.475/437.950
RS-15 24 Sep 08:21:28 08:33:04 44° 323° (NW) 08:44:37 29.354- 29.394
CUTE-I 24 Sep 08:25:15 08:30:24 51° 290° (WNW) 08:35:33 437.470
AO-73 24 Sep 08:27:41 08:28:17 10° 87° (E) 08:28:53 145.935
ZACube-1 24 Sep 08:29:34 08:31:36 13° 89° (E) 08:33:37 437.345
AAUSAT CUBESAT 2 24 Sep 08:29:38 08:32:28 18° 92° (E) 08:35:18 437.432
CUTE 1.7 + AOD 2 24 Sep 08:36:48 08:41:03 81° 102° (ESE) 08:45:15 437.475
STRAND 1 24 Sep 08:40:46 08:45:27 37° 263° (W) 08:50:11 437.568
XW-2D 24 Sep 08:52:40 08:54:23 13° 297° (WNW) 08:56:05 145.860 - 145.880
XW-2F 24 Sep 09:05:43 09:06:09 10° 298° (WNW) 09:06:36 145.980 - 146.000
UNISAT 6 24 Sep 09:09:50 09:12:23 15° 62° (ENE) 09:14:59 437.425
CUBEBUG 2 24 Sep 09:11:46 09:16:29 79° 285° (WNW) 09:21:14 437.445
HO-68 24 Sep 09:12:26 09:19:36 73° 290° (WNW) 09:26:46 435.675
FO-29 24 Sep 09:14:53 09:20:23 56° 72° (ENE) 09:25:32 435.910
UWE-3 24 Sep 09:17:25 09:22:07 72° 102° (ESE) 09:26:46 435.000/436.395/437.385
XW-2A 24 Sep 09:28:56 09:32:16 49° 286° (WNW) 09:35:34 145.665 - 145.685
TIGRISAT 24 Sep 09:32:17 09:35:43 23° 66° (ENE) 09:39:14 435.000
SEEDS 24 Sep 09:43:40 09:47:20 30° 291° (WNW) 09:50:58 437.485
DELFI C3 24 Sep 09:53:29 09:55:01 12° 90° (E) 09:56:33 145.870
PRISM 24 Sep 09:55:15 09:58:28 23° 66° (ENE) 10:01:41 437.425
Oscar 11 24 Sep 09:58:54 10:03:15 67° 101° (ESE) 10:07:32 .
AO-73 24 Sep 10:00:29 10:05:05 83° 284° (WNW) 10:09:38 145.935
ZACube-1 24 Sep 10:03:45 10:08:20 69° 285° (WNW) 10:12:51 437.345
AAUSAT CUBESAT 2 24 Sep 10:04:15 10:08:04 38° 289° (WNW) 10:11:52 437.432
EO-88 24 Sep 10:14:55 10:15:48 11° 90° (E) 10:16:40 145.990 - 145.960
CUTE 1.7 + AOD 2 24 Sep 10:15:19 10:16:13 11° 300° (WNW) 10:17:07 437.475
RS-15 24 Sep 10:40:02 10:49:54 26° 357° (N) 10:59:33 29.354- 29.394
UNISAT 6 24 Sep 10:44:20 10:48:36 57° 260° (W) 10:53:00 437.425
Max Valier Satellite 24 Sep 10:47:07 10:50:38 37° 98° (E) 10:54:06 145.860
CUBEBUG 2 24 Sep 10:52:05 10:52:17 10° 301° (WNW) 10:52:30 437.445
UWE-3 24 Sep 10:55:33 10:57:58 14° 299° (WNW) 11:00:23 435.000/436.395/437.385
FO-29 24 Sep 11:01:57 11:05:50 19° 267° (W) 11:09:33 435.910
HO-68 24 Sep 11:02:05 11:06:08 16° 310° (NW) 11:10:11 435.675
TIGRISAT 24 Sep 11:08:14 11:12:12 35° 263° (W) 11:16:18 435.000
DUCHIFAT 1 24 Sep 11:12:41 11:14:05 12° 61° (ENE) 11:15:30 145.980
O/OREOS (USA 219) 24 Sep 11:16:59 11:19:28 14° 49° (NE) 11:21:58 437.305
POLYITAN 1 24 Sep 11:25:38 11:28:42 20° 65° (ENE) 11:31:48 437.675
DELFI C3 24 Sep 11:26:17 11:30:05 53° 286° (WNW) 11:33:53 145.870
EO-79 24 Sep 11:29:32 11:32:45 22° 66° (ENE) 11:35:59 145.935-145.965
PRISM 24 Sep 11:29:56 11:33:35 31° 263° (W) 11:37:14 437.425
M-CUBED/EXP-1 PRIME 24 Sep 11:30:34 11:31:48 11° 57° (ENE) 11:33:01 437.505
AIST 2D 24 Sep 11:32:03 11:35:29 51° 75° (ENE) 11:38:58 435.315
Oscar 11 24 Sep 11:36:48 11:38:49 13° 298° (WNW) 11:40:50 .
AO-73 24 Sep 11:40:16 11:40:30 10° 301° (WNW) 11:40:44 145.935
QB50P2 24 Sep 11:42:46 11:46:31 32° 69° (ENE) 11:50:19 145.880/145.840
EO-88 24 Sep 11:46:12 11:49:45 51° 287° (WNW) 11:53:18 145.990 - 145.960
ESTCUBE 1 24 Sep 12:13:38 12:17:29 27° 95° (E) 12:21:18 437.505/2401.250
NANOSAT C BR1 24 Sep 12:16:59 12:21:07 62° 74° (ENE) 12:25:17 145.865
Max Valier Satellite 24 Sep 12:21:46 12:24:09 16° 294° (WNW) 12:26:32 145.860
YUBILEINY 24 Sep 12:27:45 12:35:56 48° 88° (E) 12:44:06 435.215
SPROUT 24 Sep 12:34:38 12:35:51 11° 89° (E) 12:37:03 437.525
LO-87 24 Sep 12:39:53 12:43:30 88° 103° (ESE) 12:47:07 145.935 - 145.965
DUCHIFAT 1 24 Sep 12:44:58 12:49:08 73° 257° (WSW) 12:53:22 145.980
O/OREOS (USA 219) 24 Sep 12:54:51 12:59:29 78° 249° (WSW) 13:04:04 437.305
RS-15 24 Sep 12:56:00 13:07:07 38° 31° (NNE) 13:17:42 29.354- 29.394
POLYITAN 1 24 Sep 13:00:17 13:04:12 39° 262° (W) 13:08:12 437.675
M-CUBED/EXP-1 PRIME 24 Sep 13:01:29 13:05:45 80° 252° (WSW) 13:09:44 437.505
EO-79 24 Sep 13:04:27 13:08:18 35° 263° (W) 13:12:11 145.935-145.965
AIST 2D 24 Sep 13:08:44 13:08:59 10° 270° (W) 13:09:15 435.315
BUGSAT 1 24 Sep 13:17:13 13:21:12 67° 75° (ENE) 13:25:15 437.445
SO-50 24 Sep 13:18:22 13:19:04 10° 107° (ESE) 13:19:46 436.795
QB50P2 24 Sep 13:19:00 13:22:21 23° 266° (W) 13:25:43 145.880/145.840
Gurwin Techsat 1B 24 Sep 13:19:33 13:23:56 27° 64° (ENE) 13:28:21 435.225
Oscar 19 24 Sep 13:27:26 13:32:22 44° 69° (ENE) 13:37:17 437.125/150
NO-84 24 Sep 13:41:55 13:45:47 72° 139° (SE) 13:49:21 435.350 FM
DX 1 24 Sep 13:46:56 13:48:51 13° 90° (E) 13:50:46 434.975-435.025
ESTCUBE 1 24 Sep 13:50:20 13:54:15 30° 292° (WNW) 13:58:09 437.505/2401.250
AO-7 24 Sep 13:54:00 13:59:45 21° 49° (NE) 14:05:29 .
50 SAT 24 Sep 13:55:23 13:57:34 16° 94° (E) 13:59:45 437.505
NANOSAT C BR1 24 Sep 13:55:37 13:57:14 12° 271° (W) 13:58:50 145.865
PCSat 24 Sep 13:55:46 13:58:26 14° 103° (ESE) 14:01:05 145.827
SPROUT 24 Sep 14:07:55 14:12:12 69° 285° (WNW) 14:16:27 437.525
VELOX 1 24 Sep 14:15:03 14:19:28 83° 285° (WNW) 14:23:51 145.980
YUBILEINY 24 Sep 14:24:50 14:32:51 40° 289° (WNW) 14:40:55 435.215
ITAMSAT 1 24 Sep 14:36:38 14:39:29 15° 58° (ENE) 14:42:21 435.822/435.867
SO-50 24 Sep 14:54:18 14:58:48 89° 314° (NW) 15:03:19 436.795
BUGSAT 1 24 Sep 14:56:41 14:57:01 10° 271° (W) 14:57:21 437.445
Gurwin Techsat 1B 24 Sep 14:58:39 15:03:40 42° 262° (W) 15:08:43 435.225
Oscar 19 24 Sep 15:07:41 15:11:50 24° 266° (W) 15:16:02 437.125/150
RS-15 24 Sep 15:09:03 15:21:07 85° 239° (WSW) 15:32:29 29.354- 29.394
UKube-1 24 Sep 15:12:17 15:16:35 69° 102° (ESE) 15:20:51 .
NO-84 24 Sep 15:20:31 15:23:27 22° 335° (NNW) 15:26:13 435.350 FM
DX 1 24 Sep 15:21:08 15:25:26 62° 287° (WNW) 15:29:42 434.975-435.025
50 SAT 24 Sep 15:27:16 15:30:05 26° 290° (WNW) 15:32:54 437.505
PCSat 24 Sep 15:35:37 15:41:03 85° 300° (WNW) 15:46:31 145.827
AO-7 24 Sep 15:42:59 15:51:20 82° 69° (ENE) 15:59:40 .
ITUPSAT 1 24 Sep 15:48:39 15:52:18 21° 93° (E) 15:55:55 437.325
ITAMSAT 1 24 Sep 16:13:07 16:18:17 80° 256° (WSW) 16:23:29 435.822/435.867
BEESAT 24 Sep 16:23:58 16:28:37 47° 99° (E) 16:33:13 436.000
SO-50 24 Sep 16:37:08 16:39:54 16° 324° (NW) 16:42:42 436.795
MOZHAYETS 4 24 Sep 16:47:00 16:51:40 84° 103° (ESE) 16:56:18
UKube-1 24 Sep 16:50:06 16:52:02 13° 299° (WNW) 16:53:58 .
NO-84 24 Sep 17:00:37 17:01:49 11° 356° (N) 17:03:01 435.350 FM
LilacSat-2 24 Sep 17:15:34 17:16:05 10° 62° (ENE) 17:16:36 437.200
CUBESAT XI-V 24 Sep 17:16:06 17:20:23 36° 97° (E) 17:24:37 437.345
PCSat 24 Sep 17:21:41 17:25:17 18° 321° (NW) 17:28:53 145.827
RS-15 24 Sep 17:23:30 17:31:40 23° 261° (W) 17:39:35 29.354- 29.394
ITUPSAT 1 24 Sep 17:25:44 17:30:19 45° 290° (WNW) 17:34:52 437.325
KAITUO 1B 24 Sep 17:30:11 17:30:30 10° 62° (ENE) 17:30:50 145.475/437.950
AO-7 24 Sep 17:38:49 17:44:56 22° 268° (W) 17:51:06 .
DOVE 4 24 Sep 17:39:08 17:43:30 69° 75° (ENE) 17:47:43 437.250
HO-68 24 Sep 17:56:56 18:01:52 21° 54° (NE) 18:06:49 435.675
XW-2D 24 Sep 17:59:04 18:02:26 30° 70° (ENE) 18:05:49 145.860 - 145.880
BEESAT 24 Sep 18:02:29 18:06:03 21° 297° (WNW) 18:09:36 436.000
CUTE-I 24 Sep 18:08:40 18:13:35 40° 68° (ENE) 18:18:30 437.470
XW-2F 24 Sep 18:10:24 18:13:56 36° 71° (ENE) 18:17:28 145.980 - 146.000
XW-2B 24 Sep 18:11:12 18:14:47 39° 72° (ENE) 18:18:24 145.730 - 145.750
MOZHAYETS 4 24 Sep 18:26:23 18:28:07 12° 301° (WNW) 18:29:51
NUDT-PHONESAT 24 Sep 18:30:04 18:33:41 47° 73° (ENE) 18:37:19 437.300
XW-2C 24 Sep 18:32:20 18:36:10 73° 75° (ENE) 18:40:01 145.795 - 145.815
KKS-1 24 Sep 18:36:20 18:40:48 85° 104° (ESE) 18:45:15 437.445
CUBEBUG 2 24 Sep 18:38:05 18:39:03 11° 59° (ENE) 18:40:03 437.445
NO-84 24 Sep 18:38:12 18:40:20 16° 18° (NNE) 18:42:22 435.350 FM
LilacSat-2 24 Sep 18:45:55 18:49:46 71° 259° (WSW) 18:53:40 437.200
CUBESAT XI-V 24 Sep 18:53:51 18:57:34 24° 294° (WNW) 19:01:15 437.345
STARS 24 Sep 18:57:39 19:02:02 59° 101° (ESE) 19:06:22 437.465
KAITUO 1B 24 Sep 19:00:08 19:03:55 69° 259° (W) 19:07:43 145.475/437.950
SEEDS 24 Sep 19:01:08 19:04:14 20° 66° (ENE) 19:07:20 437.485
BEESAT 3 24 Sep 19:17:00 19:19:45 18° 111° (ESE) 19:22:31 437.485
DOVE 4 24 Sep 19:20:31 19:21:37 11° 270° (W) 19:22:42 437.250
AAUSAT CUBESAT 2 24 Sep 19:21:18 19:23:41 15° 64° (ENE) 19:26:05 437.432
ZACube-1 24 Sep 19:27:11 19:28:49 12° 60° (ENE) 19:30:27 437.345
CUTE 1.7 + AOD 2 24 Sep 19:29:56 19:34:11 64° 74° (ENE) 19:38:26 437.475
XW-2D 24 Sep 19:33:43 19:36:38 20° 266° (W) 19:39:34 145.860 - 145.880
HO-68 24 Sep 19:41:32 19:48:42 88° 251° (WSW) 19:55:55 435.675
XW-2F 24 Sep 19:45:40 19:48:10 17° 268° (W) 19:50:41 145.980 - 146.000
XW-2B 24 Sep 19:46:46 19:49:08 16° 268° (W) 19:51:30 145.730 - 145.750
CUTE-I 24 Sep 19:49:13 19:53:43 28° 265° (W) 19:58:14 437.470
Tancredo 1 24 Sep 19:50:02 19:52:39 53° 144° (SE) 19:55:17 437.200
XW-2A 24 Sep 20:00:31 20:03:52 57° 74° (ENE) 20:07:16 145.665 - 145.685
NUDT-PHONESAT 24 Sep 20:06:10 20:07:49 12° 270° (W) 20:09:27 437.300
CUBEBUG 2 24 Sep 20:10:41 20:14:55 84° 255° (WSW) 20:19:22 437.445
NO-84 24 Sep 20:15:04 20:18:08 85° 34° (NE) 20:21:01 435.350 FM
UWE-3 24 Sep 20:15:09 20:19:23 63° 74° (ENE) 20:23:49 435.000/436.395/437.385
KKS-1 24 Sep 20:15:23 20:16:40 11° 301° (WNW) 20:17:57 437.445
AO-85 24 Sep 20:21:02 20:24:17 26° 115° (ESE) 20:27:34 145.980
STARS 24 Sep 20:35:21 20:37:53 15° 298° (WNW) 20:40:25 437.465
SEEDS 24 Sep 20:35:41 20:39:39 38° 262° (W) 20:43:38 437.485
ISS 24 Sep 20:45:17 20:48:11 29° 138° (SE) 20:51:06 437.550
STRAND 1 24 Sep 20:49:24 20:54:33 68° 102° (ESE) 20:59:40 437.568
BEESAT 3 24 Sep 20:53:06 20:56:58 45° 309° (NW) 21:00:53 437.485
Oscar 11 24 Sep 20:54:18 20:58:34 58° 74° (ENE) 21:02:51 .
AAUSAT CUBESAT 2 24 Sep 20:54:39 20:58:43 52° 260° (W) 21:02:47 437.432
AO-73 24 Sep 20:56:27 21:00:47 85° 83° (E) 21:05:18 145.935
ZACube-1 24 Sep 21:00:04 21:04:23 78° 257° (WSW) 21:08:53 437.345
BEESAT 2 24 Sep 21:02:56 21:06:56 74° 121° (ESE) 21:10:59 435.950
CUTE 1.7 + AOD 2 24 Sep 21:08:46 21:10:26 12° 271° (W) 21:12:05 437.475
nSIGHT-1 24 Sep 21:22:02 21:25:15 73° 145° (SE) 21:28:29 .
Tancredo 1 24 Sep 21:25:02 21:27:16 23° 341° (NNW) 21:29:31 437.200
Max Valier Satellite 24 Sep 21:27:21 21:30:08 20° 67° (ENE) 21:32:56 145.860
HO-68 24 Sep 21:33:14 21:37:22 16° 272° (W) 21:41:32 435.675
SO-50 24 Sep 21:44:45 21:48:00 19° 39° (NE) 21:51:16 436.795
UWE-3 24 Sep 21:54:28 21:56:20 12° 272° (W) 21:58:12 435.000/436.395/437.385
AO-85 24 Sep 22:01:06 22:04:34 30° 313° (NW) 22:08:06 145.980
FO-29 24 Sep 22:06:07 22:11:24 45° 99° (E) 22:17:15 435.910
DELFI C3 24 Sep 22:11:57 22:15:54 85° 261° (W) 22:19:51 145.870
ISS 24 Sep 22:21:26 22:24:34 41° 335° (NNW) 22:27:44 437.550
EO-88 24 Sep 22:24:14 22:27:53 74° 76° (ENE) 22:31:34 145.990 - 145.960
STRAND 1 24 Sep 22:29:54 22:33:10 17° 300° (WNW) 22:36:26 437.568
Oscar 11 24 Sep 22:32:51 22:35:03 14° 270° (W) 22:37:17 .
